カタログに戻る

FREGAT R/B

運用中MEO
NORAD 43235·ROCKET BODY·🇷🇺 Russia

打ち上げ Mar 9, 2018 から Guiana Space Centre

Loading…

次のパス (今後24時間)

TLE

最新Source: Space-Track

元期: Sep 14, 2026, 12:46 UTC

1 43235U 18024E   26257.53250388 -.00000024  00000-0  00000-0 0  9995
2 43235   0.0325 112.8091 0010625  12.5853 234.7058  5.21347969162216

AllMySatでFREGAT R/Bをリアルタイム追跡

Download on the App Store